Tracking 31027 objects as of 18-Jul-2025
HD Live streaming from Space Station
objects crossing your sky now

NOAA 17 DEB

Track NOAA 17 DEB now!
10-day predictions


NORAD ID: 48178
Int'l Code: 2002-032U
Perigee: 732.5 km
Apogee: 747.0 km
Inclination: 98.9 °
Period: 99.5 minutes
Semi major axis: 7110 km
RCS: Unknown
Launch date: June 24, 2002
Source: United States (US)
Launch site: AIR FORCE WESTERN TEST RANGE (AFWTR)

Note: This is SATELLITE DEBRIS
Your satellite tracking list
Your tracking list is empty




NASA's NSSDC Master Catalog

Two Line Element Set (TLE):
1 48178U 02032T   25199.44671986  .00004859  00000-0  13231-2 0  9994
2 48178  98.8585 193.0049 0010185 162.1395 198.0156 14.47879102225597
Source of the keplerian elements: AFSPC